• In Hungary
  • List of Countries
  • For 7 days
  • Water Temperature
  • Satellite Maps
  • Weather Map
  • News
  • Weather Widgets
  • user-avatar
    Login

    Hourly Weather Gweru

    Today, 25 September, Monday

    Time Temperature Precipitation Wind Pressure Humidity
    00:00 +17°C° 0 mm 2 mps 645 mmHg 63%
    01:00 +17°C° 0 mm 2 mps 645 mmHg 67%
    02:00 +16°C° 0 mm 1 mps 644 mmHg 71%
    03:00 +16°C° 0 mm 1 mps 644 mmHg 73%
    04:00 +15°C° 0 mm 1 mps 644 mmHg 75%
    05:00 +15°C° 0 mm 1 mps 644 mmHg 77%
    06:00 +18°C° 0 mm 1 mps 645 mmHg 69%
    07:00 +20°C° 0 mm 1 mps 645 mmHg 60%
    08:00 +21°C° 0 mm 2 mps 646 mmHg 52%
    09:00 +26°C° 0 mm 1 mps 647 mmHg 42%
    10:00 +29°C° 0 mm 1 mps 647 mmHg 31%
    11:00 +33°C° 0 mm 1 mps 648 mmHg 21%
    12:00 +34°C° 0 mm 1 mps 647 mmHg 18%
    13:00 +35°C° 0 mm 1 mps 647 mmHg 15%
    14:00 +36°C° 0 mm 1 mps 646 mmHg 12%
    15:00 +35°C° 0 mm 1 mps 645 mmHg 13%
    16:00 +35°C° 0 mm 2 mps 645 mmHg 13%
    17:00 +32°C° 0 mm 2 mps 644 mmHg 14%
    18:00 +30°C° 0 mm 2 mps 644 mmHg 16%
    19:00 +28°C° 0 mm 2 mps 643 mmHg 19%
    20:00 +26°C° 0 mm 1 mps 643 mmHg 21%
    21:00 +25°C° 0 mm 1 mps 643 mmHg 22%
    22:00 +25°C° 0 mm 1 mps 643 mmHg 24%
    23:00 +24°C° 0 mm 1 mps 643 mmHg 26%

    Tomorrow, 26 September, Tuesday

    Time Temperature Precipitation Wind Pressure Humidity
    00:00 +23°C° 0 mm 2 mps 643 mmHg 27%
    01:00 +21°C° 0 mm 2 mps 643 mmHg 29%
    02:00 +20°C° 0 mm 2 mps 642 mmHg 30%
    03:00 +20°C° 0 mm 2 mps 642 mmHg 32%
    04:00 +19°C° 0 mm 2 mps 642 mmHg 34%
    05:00 +19°C° 0 mm 2 mps 642 mmHg 36%
    06:00 +21°C° 0 mm 3 mps 642 mmHg 32%
    07:00 +25°C° 0 mm 3 mps 643 mmHg 28%
    08:00 +27°C° 0 mm 4 mps 644 mmHg 24%
    09:00 +30°C° 0 mm 3 mps 645 mmHg 20%
    10:00 +33°C° 0 mm 3 mps 645 mmHg 17%
    11:00 +35°C° 0 mm 3 mps 645 mmHg 13%
    12:00 +37°C° 0 mm 2 mps 645 mmHg 11%
    13:00 +38°C° 0 mm 2 mps 644 mmHg 10%
    14:00 +39°C° 0 mm 1 mps 644 mmHg 9%
    15:00 +36°C° 0 mm 1 mps 643 mmHg 9%
    16:00 +35°C° 0 mm 1 mps 643 mmHg 10%
    17:00 +34°C° 0 mm 1 mps 642 mmHg 11%
    18:00 +32°C° 0 mm 1 mps 643 mmHg 12%
    19:00 +30°C° 0 mm 1 mps 643 mmHg 13%
    20:00 +29°C° 0 mm 1 mps 643 mmHg 15%
    21:00 +28°C° 0 mm 1 mps 643 mmHg 16%
    22:00 +28°C° 0 mm 2 mps 643 mmHg 16%
    23:00 +27°C° 0 mm 2 mps 644 mmHg 17%

    Day after tomorrow, 27 September, Wednesday

    Time Temperature Precipitation Wind Pressure Humidity
    00:00 +26°C° 0 mm 2 mps 643 mmHg 19%
    01:00 +25°C° 0 mm 2 mps 643 mmHg 22%
    02:00 +24°C° 0 mm 2 mps 642 mmHg 24%
    03:00 +23°C° 0 mm 2 mps 643 mmHg 28%
    04:00 +21°C° 0 mm 2 mps 643 mmHg 32%
    05:00 +20°C° 0 mm 2 mps 643 mmHg 36%
    06:00 +21°C° 0 mm 3 mps 644 mmHg 40%
    07:00 +22°C° 0 mm 4 mps 645 mmHg 44%
    08:00 +23°C° 0 mm 4 mps 646 mmHg 48%
    09:00 +27°C° 0 mm 4 mps 646 mmHg 41%
    10:00 +29°C° 0 mm 4 mps 646 mmHg 34%
    11:00 +33°C° 0 mm 4 mps 647 mmHg 28%
    12:00 +33°C° 0 mm 4 mps 646 mmHg 26%
    13:00 +34°C° 0 mm 4 mps 646 mmHg 24%
    14:00 +35°C° 0 mm 4 mps 645 mmHg 23%
    15:00 +32°C° 0.2 mm 5 mps 645 mmHg 32%
    16:00 +29°C° 0.2 mm 5 mps 645 mmHg 41%
    17:00 +26°C° 0.2 mm 6 mps 644 mmHg 50%
    18:00 +24°C° 0.8 mm 6 mps 645 mmHg 53%
    19:00 +23°C° 0.8 mm 6 mps 646 mmHg 57%
    20:00 +22°C° 0.8 mm 5 mps 646 mmHg 60%
    21:00 +21°C° 0.1 mm 5 mps 647 mmHg 63%
    22:00 +21°C° 0.1 mm 5 mps 647 mmHg 65%
    23:00 +20°C° 0.1 mm 4 mps 647 mmHg 68%

    28 September, Thursday

    Time Temperature Precipitation Wind Pressure Humidity
    00:00 +20°C° 0 mm 4 mps 647 mmHg 73%
    01:00 +19°C° 0 mm 5 mps 646 mmHg 78%
    02:00 +17°C° 0 mm 5 mps 646 mmHg 83%
    03:00 +17°C° 0 mm 5 mps 646 mmHg 83%
    04:00 +17°C° 0 mm 5 mps 646 mmHg 83%
    05:00 +17°C° 0 mm 5 mps 646 mmHg 82%
    06:00 +19°C° 0 mm 5 mps 647 mmHg 79%
    07:00 +19°C° 0 mm 6 mps 648 mmHg 76%
    08:00 +19°C° 0 mm 6 mps 649 mmHg 72%
    09:00 +21°C° 0 mm 6 mps 649 mmHg 64%
    10:00 +23°C° 0 mm 6 mps 649 mmHg 55%
    11:00 +26°C° 0 mm 6 mps 649 mmHg 47%
    12:00 +27°C° 0 mm 6 mps 649 mmHg 44%
    13:00 +28°C° 0 mm 5 mps 648 mmHg 40%
    14:00 +29°C° 0 mm 5 mps 648 mmHg 37%
    15:00 +28°C° 0 mm 6 mps 648 mmHg 40%
    16:00 +27°C° 0 mm 6 mps 647 mmHg 44%
    17:00 +26°C° 0 mm 6 mps 647 mmHg 47%
    18:00 +23°C° 0.3 mm 6 mps 647 mmHg 54%
    19:00 +21°C° 0.3 mm 6 mps 647 mmHg 61%
    20:00 +20°C° 0.3 mm 6 mps 648 mmHg 68%
    21:00 +19°C° 0 mm 6 mps 647 mmHg 70%
    22:00 +17°C° 0 mm 5 mps 647 mmHg 72%
    23:00 +17°C° 0 mm 5 mps 647 mmHg 74%

    29 September, Friday

    Time Temperature Precipitation Wind Pressure Humidity
    00:00 +16°C° 0 mm 5 mps 647 mmHg 76%
    01:00 +17°C° 0 mm 4 mps 646 mmHg 77%
    02:00 +17°C° 0 mm 4 mps 646 mmHg 79%
    03:00 +17°C° 0 mm 4 mps 646 mmHg 80%
    04:00 +16°C° 0 mm 3 mps 646 mmHg 81%
    05:00 +16°C° 0 mm 3 mps 647 mmHg 81%
    06:00 +17°C° 0 mm 3 mps 647 mmHg 76%
    07:00 +18°C° 0 mm 4 mps 648 mmHg 71%
    08:00 +19°C° 0 mm 4 mps 648 mmHg 66%
    09:00 +21°C° 0 mm 4 mps 649 mmHg 56%
    10:00 +25°C° 0 mm 3 mps 649 mmHg 45%
    11:00 +27°C° 0 mm 3 mps 649 mmHg 35%
    12:00 +28°C° 0 mm 3 mps 648 mmHg 31%
    13:00 +30°C° 0 mm 3 mps 648 mmHg 26%
    14:00 +31°C° 0 mm 3 mps 647 mmHg 22%
    15:00 +30°C° 0 mm 4 mps 647 mmHg 23%
    16:00 +30°C° 0 mm 4 mps 646 mmHg 25%
    17:00 +29°C° 0 mm 4 mps 646 mmHg 26%
    18:00 +27°C° 0 mm 4 mps 646 mmHg 32%
    19:00 +25°C° 0 mm 4 mps 646 mmHg 38%
    20:00 +22°C° 0 mm 4 mps 646 mmHg 45%
    21:00 +21°C° 0 mm 4 mps 646 mmHg 48%
    22:00 +20°C° 0 mm 3 mps 646 mmHg 51%
    23:00 +19°C° 0 mm 3 mps 646 mmHg 54%

    30 September, Saturday

    Time Temperature Precipitation Wind Pressure Humidity
    00:00 +19°C° 0 mm 2 mps 646 mmHg 57%
    01:00 +18°C° 0 mm 2 mps 645 mmHg 59%
    02:00 +18°C° 0 mm 2 mps 645 mmHg 61%
    03:00 +17°C° 0 mm 2 mps 645 mmHg 63%
    04:00 +17°C° 0 mm 2 mps 645 mmHg 65%
    05:00 +16°C° 0 mm 1 mps 645 mmHg 67%
    06:00 +18°C° 0 mm 2 mps 646 mmHg 60%
    07:00 +20°C° 0 mm 2 mps 647 mmHg 54%
    08:00 +23°C° 0 mm 2 mps 648 mmHg 47%
    09:00 +25°C° 0 mm 2 mps 648 mmHg 40%
    10:00 +27°C° 0 mm 3 mps 648 mmHg 32%
    11:00 +29°C° 0 mm 3 mps 648 mmHg 24%
    12:00 +30°C° 0 mm 3 mps 648 mmHg 22%
    13:00 +32°C° 0 mm 4 mps 647 mmHg 20%
    14:00 +33°C° 0 mm 4 mps 647 mmHg 18%
    15:00 +32°C° 0 mm 4 mps 647 mmHg 19%
    16:00 +30°C° 0 mm 5 mps 646 mmHg 21%
    17:00 +30°C° 0 mm 5 mps 646 mmHg 23%
    18:00 +28°C° 0 mm 5 mps 646 mmHg 26%
    19:00 +26°C° 0 mm 5 mps 646 mmHg 29%
    20:00 +25°C° 0 mm 5 mps 646 mmHg 33%
    21:00 +23°C° 0 mm 5 mps 647 mmHg 35%
    22:00 +22°C° 0 mm 5 mps 647 mmHg 37%
    23:00 +21°C° 0 mm 5 mps 647 mmHg 39%
    Show more